Time,TemperatureF,DewpointF,PressureIn,WindDirection,WindDirectionDegrees,WindSpeedMPH,WindSpeedGustMPH,Humidity,HourlyPrecipIn,Conditions,Clouds,dailyrainin,SolarRadiationWatts/m^2,SoftwareType,DateUTC
2013-07-21 00:00:00,66.5,64.0,29.79,SSW,208,0.0,0.0,90,0.00,,,0.00,0,weatherlink.com 1.10,2013-07-21 04:00:00,
2013-07-21 00:13:00,66.2,63.0,29.79,SSW,207,0.0,0.0,90,0.00,,,0.00,0,weatherlink.com 1.10,2013-07-21 04:13:00,
2013-07-21 00:28:00,65.9,63.0,29.80,SSW,207,0.0,0.0,91,0.00,,,0.00,0,weatherlink.com 1.10,2013-07-21 04:28:00,
2013-07-21 00:43:00,65.7,63.0,29.81,SSW,207,0.0,0.0,91,0.00,,,0.00,0,weatherlink.com 1.10,2013-07-21 04:43:00,
2013-07-21 00:58:00,65.3,63.0,29.81,SSW,207,0.0,0.0,92,0.00,,,0.00,0,weatherlink.com 1.10,2013-07-21 04:58:00,
2013-07-21 01:13:00,65.1,63.0,29.81,SSW,208,0.0,0.0,92,0.00,,,0.00,0,weatherlink.com 1.10,2013-07-21 05:13:00,
2013-07-21 01:28:00,64.9,63.0,29.81,SSW,207,0.0,0.0,92,0.00,,,0.00,0,weatherlink.com 1.10,2013-07-21 05:28:00,
2013-07-21 01:43:00,64.6,62.0,29.82,SSW,208,0.0,0.0,92,0.00,,,0.00,0,weatherlink.com 1.10,2013-07-21 05:43:00,
2013-07-21 01:58:00,64.5,63.0,29.82,SSW,207,0.0,0.0,93,0.00,,,0.00,0,weatherlink.com 1.10,2013-07-21 05:58:00,
2013-07-21 02:13:00,64.2,62.0,29.82,SSW,208,0.0,0.0,93,0.00,,,0.00,0,weatherlink.com 1.10,2013-07-21 06:13:00,
2013-07-21 02:28:00,64.0,62.0,29.82,SSW,208,0.0,0.0,93,0.00,,,0.00,0,weatherlink.com 1.10,2013-07-21 06:28:00,
2013-07-21 02:43:00,63.7,62.0,29.83,SSW,208,0.0,0.0,93,0.00,,,0.00,0,weatherlink.com 1.10,2013-07-21 06:43:00,
2013-07-21 02:58:00,63.3,61.0,29.83,SSW,208,0.0,0.0,93,0.00,,,0.00,0,weatherlink.com 1.10,2013-07-21 06:58:00,
2013-07-21 03:13:00,62.9,61.0,29.82,SSW,208,0.0,0.0,94,0.00,,,0.00,0,weatherlink.com 1.10,2013-07-21 07:13:00,
2013-07-21 03:28:00,62.6,61.0,29.83,SSW,208,0.0,0.0,94,0.00,,,0.00,0,weatherlink.com 1.10,2013-07-21 07:28:00,
2013-07-21 03:43:00,62.3,61.0,29.83,SSW,208,0.0,0.0,94,0.00,,,0.00,0,weatherlink.com 1.10,2013-07-21 07:43:00,
2013-07-21 03:58:00,62.0,60.0,29.83,SSW,208,0.0,0.0,94,0.00,,,0.00,0,weatherlink.com 1.10,2013-07-21 07:58:00,
2013-07-21 04:13:00,61.8,60.0,29.84,SSW,208,0.0,0.0,94,0.00,,,0.00,0,weatherlink.com 1.10,2013-07-21 08:13:00,
2013-07-21 04:28:00,61.4,60.0,29.84,SSW,208,0.0,0.0,94,0.00,,,0.00,0,weatherlink.com 1.10,2013-07-21 08:28:00,
2013-07-21 04:44:00,61.3,60.0,29.84,SSW,208,0.0,0.0,95,0.00,,,0.00,0,weatherlink.com 1.10,2013-07-21 08:44:00,
2013-07-21 04:59:00,61.3,60.0,29.84,SSW,208,0.0,0.0,95,0.00,,,0.00,0,weatherlink.com 1.10,2013-07-21 08:59:00,
2013-07-21 05:14:00,61.8,61.0,29.85,NNW,340,0.0,0.0,96,0.00,,,0.00,0,weatherlink.com 1.10,2013-07-21 09:14:00,
2013-07-21 05:29:00,61.8,61.0,29.86,NNW,340,0.0,0.0,96,0.00,,,0.00,5,weatherlink.com 1.10,2013-07-21 09:29:00,
2013-07-21 05:44:00,61.7,60.0,29.86,NNW,340,0.0,0.0,95,0.00,,,0.00,11,weatherlink.com 1.10,2013-07-21 09:44:00,
2013-07-21 05:59:00,62.2,61.0,29.86,NNW,340,0.0,0.0,96,0.00,,,0.00,19,weatherlink.com 1.10,2013-07-21 09:59:00,
2013-07-21 06:14:00,62.5,61.0,29.87,NNW,340,0.0,0.0,96,0.00,,,0.00,26,weatherlink.com 1.10,2013-07-21 10:14:00,
2013-07-21 06:29:00,62.6,62.0,29.88,NNW,340,0.0,0.0,96,0.00,,,0.00,39,weatherlink.com 1.10,2013-07-21 10:29:00,
2013-07-21 06:44:00,62.8,62.0,29.89,NNW,340,0.0,0.0,96,0.00,,,0.00,40,weatherlink.com 1.10,2013-07-21 10:44:00,
2013-07-21 06:59:00,63.3,62.0,29.89,NNW,340,0.0,0.0,96,0.00,,,0.00,118,weatherlink.com 1.10,2013-07-21 10:59:00,
2013-07-21 07:16:00,63.6,63.0,29.89,NNW,340,0.0,0.0,96,0.00,,,0.00,128,weatherlink.com 1.10,2013-07-21 11:16:00,
2013-07-21 07:29:00,63.7,63.0,29.89,NNW,340,0.0,0.0,96,0.00,,,0.00,118,weatherlink.com 1.10,2013-07-21 11:29:00,
2013-07-21 07:44:00,64.2,63.0,29.90,NNW,340,0.0,0.0,96,0.00,,,0.00,269,weatherlink.com 1.10,2013-07-21 11:44:00,
2013-07-21 07:59:00,65.3,65.0,29.90,NNW,340,0.0,0.0,97,0.00,,,0.00,185,weatherlink.com 1.10,2013-07-21 11:59:00,
2013-07-21 08:14:00,66.6,66.0,29.90,NNW,340,0.0,0.0,96,0.00,,,0.00,394,weatherlink.com 1.10,2013-07-21 12:14:00,
2013-07-21 08:29:00,68.3,66.0,29.90,NNW,340,0.0,0.0,93,0.00,,,0.00,415,weatherlink.com 1.10,2013-07-21 12:29:00,
2013-07-21 08:44:00,70.4,67.0,29.90,NNW,340,0.0,0.0,88,0.00,,,0.00,316,weatherlink.com 1.10,2013-07-21 12:44:00,
2013-07-21 08:59:00,72.1,67.0,29.90,NNW,340,0.0,0.0,85,0.00,,,0.00,367,weatherlink.com 1.10,2013-07-21 12:59:00,
2013-07-21 09:14:00,73.5,68.0,29.91,NE,37,0.0,0.0,82,0.00,,,0.00,364,weatherlink.com 1.10,2013-07-21 13:14:00,
2013-07-21 09:29:00,74.3,66.0,29.90,NE,37,0.0,0.0,75,0.00,,,0.00,429,weatherlink.com 1.10,2013-07-21 13:29:00,
2013-07-21 09:44:00,75.4,67.0,29.90,NE,49,0.0,0.0,76,0.00,,,0.00,508,weatherlink.com 1.10,2013-07-21 13:44:00,
2013-07-21 09:59:00,76.4,67.0,29.90,ENE,62,0.0,0.0,73,0.00,,,0.00,657,weatherlink.com 1.10,2013-07-21 13:59:00,
2013-07-21 10:14:00,76.7,67.0,29.90,NNE,15,0.0,0.0,72,0.00,,,0.00,476,weatherlink.com 1.10,2013-07-21 14:14:00,
2013-07-21 10:29:00,77.0,66.0,29.90,NNE,24,0.0,0.0,69,0.00,,,0.00,624,weatherlink.com 1.10,2013-07-21 14:29:00,
2013-07-21 10:44:00,77.9,67.0,29.91,NNE,27,0.0,0.0,69,0.00,,,0.00,591,weatherlink.com 1.10,2013-07-21 14:44:00,
2013-07-21 10:59:00,78.6,67.0,29.91,NNE,27,0.0,0.0,67,0.00,,,0.00,554,weatherlink.com 1.10,2013-07-21 14:59:00,
2013-07-21 11:14:00,78.6,67.0,29.91,NNE,30,0.0,0.0,68,0.00,,,0.00,541,weatherlink.com 1.10,2013-07-21 15:14:00,
2013-07-21 11:29:00,79.1,68.0,29.91,NNE,30,0.0,0.0,68,0.00,,,0.00,594,weatherlink.com 1.10,2013-07-21 15:29:00,
2013-07-21 11:44:00,79.4,67.0,29.91,NNE,30,0.0,0.0,65,0.00,,,0.00,577,weatherlink.com 1.10,2013-07-21 15:44:00,
2013-07-21 12:00:00,80.1,68.0,29.91,NNE,30,0.0,0.0,66,0.00,,,0.00,700,weatherlink.com 1.10,2013-07-21 16:00:00,
2013-07-21 12:15:00,80.6,68.0,29.91,NNE,30,0.0,0.0,66,0.00,,,0.00,452,weatherlink.com 1.10,2013-07-21 16:15:00,
2013-07-21 12:30:00,81.0,69.0,29.91,East,87,0.0,0.0,66,0.00,,,0.00,991,weatherlink.com 1.10,2013-07-21 16:30:00,
2013-07-21 12:45:00,81.2,66.0,29.91,ESE,107,0.0,0.0,61,0.00,,,0.00,364,weatherlink.com 1.10,2013-07-21 16:45:00,
2013-07-21 13:00:00,81.5,68.0,29.91,East,94,0.0,0.0,63,0.00,,,0.00,448,weatherlink.com 1.10,2013-07-21 17:00:00,
2013-07-21 13:15:00,82.9,69.0,29.90,ENE,70,0.0,0.0,64,0.00,,,0.00,1097,weatherlink.com 1.10,2013-07-21 17:15:00,
2013-07-21 13:30:00,83.1,68.0,29.90,NE,38,0.0,0.0,60,0.00,,,0.00,265,weatherlink.com 1.10,2013-07-21 17:30:00,
2013-07-21 13:45:00,82.2,68.0,29.90,NE,46,0.0,0.0,62,0.00,,,0.00,257,weatherlink.com 1.10,2013-07-21 17:45:00,
2013-07-21 14:00:00,82.3,67.0,29.90,East,80,0.0,0.0,60,0.00,,,0.00,519,weatherlink.com 1.10,2013-07-21 18:00:00,
2013-07-21 14:15:00,82.5,69.0,29.90,East,81,0.0,0.0,64,0.00,,,0.00,1032,weatherlink.com 1.10,2013-07-21 18:15:00,
2013-07-21 14:33:00,83.7,68.0,29.90,NNE,29,0.0,0.0,59,0.00,,,0.00,944,weatherlink.com 1.10,2013-07-21 18:33:00,
2013-07-21 14:45:00,84.2,68.0,29.89,NE,46,0.0,0.0,58,0.00,,,0.00,306,weatherlink.com 1.10,2013-07-21 18:45:00,
2013-07-21 15:00:00,83.6,66.0,29.89,East,96,0.0,0.0,56,0.00,,,0.00,243,weatherlink.com 1.10,2013-07-21 19:00:00,
2013-07-21 15:15:00,83.0,68.0,29.89,East,96,0.0,0.0,60,0.00,,,0.00,149,weatherlink.com 1.10,2013-07-21 19:15:00,
2013-07-21 15:30:00,82.2,70.0,29.89,East,96,0.0,0.0,67,0.00,,,0.00,165,weatherlink.com 1.10,2013-07-21 19:30:00,
2013-07-21 15:46:00,81.9,70.0,29.89,ESE,111,0.0,0.0,67,0.00,,,0.00,831,weatherlink.com 1.10,2013-07-21 19:46:00,
2013-07-21 16:00:00,82.5,68.0,29.89,ESE,113,0.0,0.0,61,0.00,,,0.00,388,weatherlink.com 1.10,2013-07-21 20:00:00,
2013-07-21 16:15:00,83.5,68.0,29.89,ESE,111,0.0,0.0,60,0.00,,,0.00,824,weatherlink.com 1.10,2013-07-21 20:15:00,
2013-07-21 16:30:00,84.7,69.0,29.89,NE,52,0.0,0.0,60,0.00,,,0.00,715,weatherlink.com 1.10,2013-07-21 20:30:00,
2013-07-21 16:45:00,85.4,69.0,29.89,NE,49,0.0,0.0,58,0.00,,,0.00,589,weatherlink.com 1.10,2013-07-21 20:45:00,
2013-07-21 17:00:00,85.3,69.0,29.89,NE,50,0.0,0.0,58,0.00,,,0.00,172,weatherlink.com 1.10,2013-07-21 21:00:00,
2013-07-21 17:15:00,85.0,66.0,29.88,NE,50,0.0,0.0,54,0.00,,,0.00,480,weatherlink.com 1.10,2013-07-21 21:15:00,
2013-07-21 17:30:00,85.1,66.0,29.89,NNE,15,0.0,0.0,53,0.00,,,0.00,487,weatherlink.com 1.10,2013-07-21 21:30:00,
2013-07-21 17:45:00,85.1,66.0,29.89,NNE,33,0.0,0.0,53,0.00,,,0.00,434,weatherlink.com 1.10,2013-07-21 21:45:00,
2013-07-21 18:00:00,84.8,68.0,29.89,NE,34,0.0,0.0,57,0.00,,,0.00,183,weatherlink.com 1.10,2013-07-21 22:00:00,
2013-07-21 18:15:00,84.4,68.0,29.88,NE,37,0.0,0.0,58,0.00,,,0.00,250,weatherlink.com 1.10,2013-07-21 22:15:00,
2013-07-21 18:30:00,83.4,67.0,29.88,NE,48,0.0,0.0,58,0.00,,,0.00,137,weatherlink.com 1.10,2013-07-21 22:30:00,
2013-07-21 18:45:00,82.2,68.0,29.89,NE,48,0.0,0.0,62,0.00,,,0.00,95,weatherlink.com 1.10,2013-07-21 22:45:00,
2013-07-21 19:00:00,80.8,68.0,29.89,NE,45,0.0,0.0,65,0.00,,,0.00,39,weatherlink.com 1.10,2013-07-21 23:00:00,
2013-07-21 19:15:00,79.3,68.0,29.89,NE,45,0.0,0.0,68,0.00,,,0.00,49,weatherlink.com 1.10,2013-07-21 23:15:00,
2013-07-21 19:30:00,77.6,67.0,29.89,NE,45,0.0,0.0,70,0.00,,,0.00,46,weatherlink.com 1.10,2013-07-21 23:30:00,
2013-07-21 19:45:00,76.5,68.0,29.89,NE,45,0.0,0.0,74,0.00,,,0.00,32,weatherlink.com 1.10,2013-07-21 23:45:00,
2013-07-21 20:00:00,75.9,67.0,29.90,NE,45,0.0,0.0,74,0.00,,,0.00,19,weatherlink.com 1.10,2013-07-22 00:00:00,
2013-07-21 20:15:00,75.1,69.0,29.90,NE,45,0.0,0.0,80,0.00,,,0.00,7,weatherlink.com 1.10,2013-07-22 00:15:00,
2013-07-21 20:30:00,74.0,68.0,29.90,NE,45,0.0,0.0,81,0.00,,,0.00,5,weatherlink.com 1.10,2013-07-22 00:30:00,
2013-07-21 20:46:00,72.9,68.0,29.91,NE,45,0.0,0.0,83,0.00,,,0.00,0,weatherlink.com 1.10,2013-07-22 00:46:00,
2013-07-21 21:00:00,71.9,67.0,29.92,NE,45,0.0,0.0,84,0.00,,,0.00,0,weatherlink.com 1.10,2013-07-22 01:00:00,
2013-07-21 21:15:00,70.9,66.0,29.93,NE,45,0.0,0.0,85,0.00,,,0.00,0,weatherlink.com 1.10,2013-07-22 01:15:00,
2013-07-21 21:30:00,70.0,66.0,29.93,NE,45,0.0,0.0,86,0.00,,,0.00,0,weatherlink.com 1.10,2013-07-22 01:30:00,
2013-07-21 21:45:00,69.1,65.0,29.94,NE,45,0.0,0.0,87,0.00,,,0.00,0,weatherlink.com 1.10,2013-07-22 01:45:00,
2013-07-21 22:00:00,68.4,65.0,29.94,NE,45,0.0,0.0,89,0.00,,,0.00,0,weatherlink.com 1.10,2013-07-22 02:00:00,
2013-07-21 22:15:00,67.7,64.0,29.94,NE,45,0.0,0.0,89,0.00,,,0.00,0,weatherlink.com 1.10,2013-07-22 02:15:00,
2013-07-21 22:30:00,67.0,64.0,29.94,NE,45,0.0,0.0,89,0.00,,,0.00,0,weatherlink.com 1.10,2013-07-22 02:30:00,
2013-07-21 22:45:00,66.5,64.0,29.94,NE,45,0.0,0.0,90,0.00,,,0.00,0,weatherlink.com 1.10,2013-07-22 02:45:00,
2013-07-21 23:01:00,66.0,63.0,29.94,NE,45,0.0,0.0,91,0.00,,,0.00,0,weatherlink.com 1.10,2013-07-22 03:01:00,
2013-07-21 23:15:00,65.5,63.0,29.95,NNE,14,0.0,0.0,92,0.00,,,0.00,0,weatherlink.com 1.10,2013-07-22 03:15:00,
2013-07-21 23:30:00,65.3,63.0,29.95,NNE,14,0.0,0.0,93,0.00,,,0.00,0,weatherlink.com 1.10,2013-07-22 03:30:00,
2013-07-21 23:45:00,65.2,63.0,29.95,NNE,14,0.0,0.0,93,0.00,,,0.00,0,weatherlink.com 1.10,2013-07-22 03:45:00,